www.pogodaiklimat.ru

Погода и климат >> Архив погоды >> Россия >> Вологодская область >> Вологда


АРХИВ ПОГОДЫ в Вологде

Время (UTC), дата Ветер
(напр.,м/с)
 
Видим.   Явления Облачность Т
(С)
Тd
(С)
f
(%)
Тe
(С)
Тes
(С)
Комфортность P
(гПа)
Po
(гПа)
Тmin
(С)
Tmax
(С)
R
(мм)
R24
(мм)
S
(см)
06 12.07 З 1 20 км 6/6 600 м
[Cb cap]
+12.1 +4.4 59 +12 +16 холодно 1006.5 990.9
09 12.07 ЮЗ 2 20 км 8/8 600 м
[Cb cap]
+14.8 +2.3 43 +15 +18 холодно 1006.6 991.1
12 12.07 ЮЗ 2 20 км 8/8 600 м
[Cb cap]
+15.9 +2.0 39 +16 +18 холодно 1006.9 991.5
15 12.07 З 1 20 км 8/8
[Cb cap]
+15.2 +3.3 45 +16 +17 прохладно 991.9 976.7 +17.3
18 12.07 штиль 0 20 км 4/0
[Ac trans]
+12.9 +5.7 62 +13 +13 холодно 1008.1 992.5
21 12.07 штиль 0 20 км 3/0
[Ac trans]
+6.2 +5.0 92 +5 +5 очень
холодно
1008.7 992.7
00 13.07 ЮЗ 1 20 км местами туман поземный 6/0 2000 м
[Ac trans]
+5.2 +4.2 93 +4 +4 очень
холодно
1008.9 992.9
03 13.07 Ю 1 20 км 3/0 2000 м
[Ac trans]
+8.0 +5.7 85 +7 +9 очень
холодно
1008.4 992.5 +4.1
06 13.07 Ю 1 20 км 3/1 600 м
[Cu hum Cs]
+15.5 +5.7 52 +16 +25 прохладно 1007.8 992.4
09 13.07 Ю 2 20 км 8/4 600 м
[Sc diur, vesp Cs]
+17.2 +4.3 42 +18 +25 прохладно 1007.4 992.1
12 13.07 В 1 10 км слаб. ливневой дождь 9/8 600 м
[Cb cap As op]
+14.2 +9.1 71 +15 +16 очень
холодно
1008.3 992.8
15 13.07 З 1 20 км 8/3 600 м
[Cb cap Ac trans]
+16.6 +6.5 51 +18 +19 прохладно 1008.4 993.0 +17.6 0.7
18 13.07 штиль 0 20 км 3/0
[Ac trans]
+12.0 +8.6 80 +11 +11 очень
холодно
1009.2 993.6
21 13.07 Ю 1 20 км местами туман поземный 1/0
[Ac trans]
+7.8 +6.6 92 +7 +7 очень
холодно
1009.9 994.0
00 14.07 Ю 1 20 км местами туман поземный 3/0 2000 м
[Ac trans]
+5.6 +4.6 93 +4 +4 очень
холодно
1010.7 994.7
03 14.07 З 1 20 км 3/0
[Ci fib]
+9.5 +8.3 92 +9 +11 холодно 1011.0 995.2 +4.7
06 14.07 ЮЗ 1 20 км 3/1 600 м
[Cu hum Ci fib]
+16.4 +7.0 54 +17 +26 по сезону 1010.5 995.1
09 14.07 Ю 1 20 км 8/4 600 м
[Cb cap Ci]
+19.0 +5.3 41 +21 +29 комфорт 1010.4 995.1
12 14.07 З 1 20 км 9/6 600 м
[Cu hum As trans Ci]
+19.2 +6.5 44 +21 +24 комфорт 1009.9 994.6
15 14.07 З 1 20 км 9/4 600 м
[Cb cap Ac trans Ci fib]
+19.0 +6.2 43 +21 +22 комфорт 1010.0 994.7 +20.1
18 14.07 СЗ 1 10 км слаб. ливневой дождь 10/8 450 м
[Cb cap Ac trans]
+13.2 +10.1 81 +13 +13 холодно 1011.2 995.6
21 14.07 штиль 0 20 км местами туман поземный {ливн. осадки} 10/4 600 м
[Sc Ac trans]
+9.6 +8.4 92 +9 +9 холодно 1011.1 995.3
00 15.07 штиль 0 20 км местами туман поземный {ливн. осадки} 10/4 600 м
[Sc Ac trans]
+8.2 +7.1 93 +7 +7 холодно 1011.4 995.5
03 15.07 штиль 0 20 км 9/4 600 м
[Sc Ac trans]
+11.7 +10.6 93 +11 +12 холодно 1011.6 995.9 +7.9 1
06 15.07 Ю 1 20 км 8/6 600 м
[Cb cap Ac trans]
+17.1 +10.1 63 +18 +21 по сезону 1011.1 995.7
09 15.07 ЮЗ 1 20 км 8/6 600 м
[Cb cap Ac trans]
+18.0 +7.7 51 +19 +24 по сезону 1010.7 995.3
12 15.07 СЗ 1 20 км 9/9 420 м
[Cb cap]
+19.0 +7.5 47 +21 +22 комфорт 1010.4 995.1
15 15.07 ЮВ 1 20 км 9/9 600 м
[Cb cap]
+17.8 +9.7 59 +19 +19 по сезону 1010.5 995.2 +21.1
18 15.07 СВ 1 20 км 8/6 600 м
[Cb cap Ac trans]
+13.3 +9.8 79 +14 +14 прохладно 1011.1 995.5
21 15.07 ЮЗ 1 20 км 6/0
[Ac trans Ci fib]
+10.1 +8.6 90 +10 +10 холодно 1011.1 995.3
00 16.07 н/о местами туман поземный 3/0
[Ac trans]
+10.0 +8.5 90
03 16.07 ЮЗ 1 20 км местами туман поземный 8/0 2000 м
[Ac trans]
+9.3 +8.2 93 +9 +10 холодно 1012.2 996.4 +7.0
06 16.07 З 1 20 км 3/1 600 м
[Cu hum Ac trans Ci fib]
+18.0 +10.4 61 +19 +27 по сезону 1011.7 996.5
09 16.07 С 1 20 км {ливн. осадки} 6/3 600 м
[Cu med, cong Ac trans Ci fib]
+21.0 +5.9 37 +23 +32 комфорт 1012.0 996.8
12 16.07 Ю 1 20 км {ливн. осадки} 6/3 600 м
[Cb cap Ac trans Ci fib]
+21.6 +5.3 35 +22 +29 комфорт 1011.7 996.5
15 16.07 В 1 20 км 6/3 600 м
[Cb cap Ac trans Ci fib]
+21.4 +5.6 36 +22 +24 комфорт 1011.6 996.4 +22.0 0.0
18 16.07 штиль 0 20 км 8/3 600 м
[Sc Ac trans Ci fib]
+16.5 +11.5 72 +16 +16 прохладно 1012.3 996.9
21 16.07 В 1 20 км 10/6 600 м
[Sc Ac trans]
+16.2 +8.7 61 +17 +17 тепло 1012.1 996.7
00 17.07 ЮВ 1 10 км слаб. дождь 10/10 420 м
[Sc]
+13.8 +11.0 83 +14 +14 по сезону 1012.9 997.3
03 17.07 СВ 3 10 км слаб. дождь 10/8 240 м
[Frnb Ac As]
+13.6 +12.3 92 +12 +12 прохладно 1012.1 996.5 +13.5 9
06 17.07 В 3 20 км в посл. час дождь 10/10 330 м
[Sc]
+15.1 +14.2 94 +14 +14 холодно 1011.7 996.2
09 17.07 В 3 20 км в посл. час дождь 10/8 450 м
[Sc Ac trans]
+16.2 +14.5 90 +16 +17 холодно 1012.1 996.7
12 17.07 СВ 3 20 км {дождь} 10/4 600 м
[Cb cap Ac trans]
+21.0 +14.5 66 +24 +26 комфорт 1011.5 996.5
15 17.07 В 2 20 км {гроза, ливн. осадки} 10/4 600 м
[Cb cap Ac trans]
+20.1 +16.3 79 +23 +24 комфорт 1010.5 995.5 +21.0 4
18 17.07 С 1
{12}
20 км в посл. час ливневой дождь {гроза} 10/10 450 м
[Cb cap]
+14.0 +12.9 93 +14 +14 прохладно 1011.3 995.8
21 17.07 СВ 3 20 км {ливн. осадки} 10/10 480 м
[Sc]
+15.6 +14.9 96 +15 +15 по сезону 1010.3 995.0
00 18.07 В 2 20 км {ливн. осадки} 10/8 480 м
[Sc Ac trans]
+15.6 +14.0 90 +15 +15 тепло 1009.2 993.9
03 18.07 В 3 19 км слаб. дождь 10/8
[Frnb Ac trans]
+15.0 +12.1 83 +14 +14 по сезону 1007.8 992.4 +13.7 8
06 18.07 В 3 10 км слаб. дождь 10/8 240 м
[Frnb Ac trans]
+15.4 +14.0 91 +15 +15 прохладно 1007.1 991.8
09 18.07 ЮВ 3 10 км слаб. дождь 10/3 360 м
[Frnb Ac As]
+15.6 +14.9 96 +15 +17 холодно 1007.2 991.9
12 18.07 В 3 10 км слаб. дождь 10/6 450 м
[Frnb Ac As]
+17.1 +16.1 94 +17 +18 холодно 1006.8 991.6
15 18.07 В 2 20 км слаб. дождь н/о +17.1 +15.4 90 +17 +18 прохладно 1006.7 991.4 +17.8 3
18 18.07 ЮВ 2 20 км {дождь} 9/9 360 м
[Sc Ac trans]
+17.1 +16.3 95 +17 +17 по сезону 1006.4 991.2
21 18.07 ЮВ 1 20 км в посл. час дождь 9/9 420 м
[Sc Ac trans]
+16.0 +14.5 91 +17 +17 тепло 1006.4 991.1
00 19.07 ЮВ 2 20 км {дождь} 10/10 360 м
[Sc]
+16.8 +16.3 97 +17 +17 тепло 1006.2 991.0

 

Местоположение метеостанции Вологда (Вологодская область, Россия): широта 59.32 долгота 39.93 высота над уровнем моря 130 м.

В архиве по умолчанию представлена погода в Вологде за последнюю неделю. Архивные данные за месяц целиком и за предыдущие месяцы, начиная с января 2011 года, Вы можете получить, выбрав интересующий диапазон дат из раскрывающегося списка и нажав кнопку "Ввод!".


*Определитесь, кто Вы:
робот инопланетянин человек

Внимание! Время в таблицах - всемирное. Для получения местного времени необходимо прибавить поправку, которая равна 3 ч.

Смотрите также архив погоды в соседних городах и на ближайших метеорологических станциях:

Погода в Коробово (Вологодская область, Россия) (50 км)
Погода в Владычном (Ярославская область, Россия) (62 км)
Погода в Яршево (Вологодская область, Россия) (103 км)
Погода в Пошехонье (Ярославская область, Россия) (104 км)
Погода в Череповце (Вологодская область, Россия) (112 км)
Погода в Данилове (Ярославская область, Россия) (125 км)
Погода в Вожеге (Вологодская область, Россия) (129 км)
Погода в Буе (Костромская область, Россия) (131 км)
Погода в Белозерске (Вологодская область, Россия) (144 км)
Погода в Рыбинске (Ярославская область, Россия) (154 км)

Пояснения к столбцам:

Ветер - указаны скорость ветра в м/с - средняя за 10 мин, порывы в срок и между сроками (в фигурных скобках) и направление, откуда дует ветер: С - северный, СВ - северо-восточный, В - восточный, ЮВ - юго-восточный, Ю - южный, ЮЗ - юго-западный, З - западный, СЗ - северо-западный.
Видимость - горизонтальная дальность видимости в метрах или километрах. При видимости от 1 до 10 км при отсутствии осадков обычно наблюдается дымка, при ухудшении видимости до 1 км и менее - туман. В сухую погоду видимость может ухудшаться дымом, пылью или мглою.
Явления - указаны атмосферные явления, наблюдавшиеся в срок или в последний час перед сроком; фигурными скобками обозначены явления, наблюдавшиеся между сроками (за 1-3 часа до срока); квадратными скобками обозначены град или гололедные отложения с указанием их диаметра в мм.
Облачность - указаны через наклонную черту общая и нижняя облачность в баллах и высота нижней границы облаков в метрах; квадратными скобками обозначены формы облаков: Ci - перистые, Cs - перисто-слоистые, Cc - перисто-кучевые, Ac - высококучевые, As - высокослоистые, Sc - слоисто-кучевые, Ns - слоисто-дождевые, Cu - кучевые, Cb - кучево-дождевые. Подробнее классификацию облаков см. в Атласе облаков (PDF).
T - Температура воздуха - температура, измеренная на высоте 2 м над землей.
Td - Температура точки росы - температура, при понижении до которой содержащийся в воздухе водяной пар достигнет насыщения.
f - Относительная влажность воздуха - влажноcть воздуха, измеренная на высоте 2 м над землей.
Te - Эффективная температура - температура, которую ощущает одетый по сезону человек в тени. Характеристика душности погоды. При расчете учитывается влияние влажности воздуха и скорости ветра на теплоощущения человека.
Tes - Эффективная температура на солнце - температура, которую ощущает человек, с поправкой на солнечный нагрев. Характеристика знойности погоды. Зависит от высоты солнца над горизонтом, облачности и скорости ветра. Ночью, в пасмурную погоду, а также при ветре 12 м/с и более поправка равна нулю.
P - Атмосферное давление - приведенное к уровню моря атмосферное давление.
Po - Атмосферное давление - измеренное на уровне метеостанции атмосферное давление.
Tmin - Минимальная температура - минимум температуры воздуха на высоте 2 м над землей.
Tmax - Максимальная температура - максимум температуры воздуха на высоте 2 м над землей.
R - Количество осадков - Количество выпавших осадков за период времени, мм. При наведении курсора мыши на число - период времени, за который выпало указанное количество осадков.
R24 - Количество осадков - Количество выпавших осадков за 24 часа, мм.
S - Снежный покров - Высота снежного покрова, см. При наведении курсора мыши на число - состояние снежного покрова и степень покрытия местности в баллах.